Tracking 20715 objects as of 27-May-2020
HD Live streaming from Space Station
objects crossing your sky now

FENGYUN 1C DEB

Track FENGYUN 1C DEB now!
10-day predictions


NORAD ID: 31001
Int'l Code: 1999-025BCT
Perigee: 665.3 km
Apogee: 897.0 km
Inclination: 99.3 °
Period: 100.3 minutes
Semi major axis: 7152 km
RCS: 0.0111 m2 (small)
Launch date: May 10, 1999
Source: People's Republic of China (PRC)
Launch site: Taiyaun Space Center, China (TSC)

Note: This is SATELLITE DEBRIS
aabbcc
Your satellite tracking list
Your tracking list is empty




NASA's NSSDC Master Catalog

Two Line Element Set (TLE):
1 31001U 99025BCT 20143.07209752 +.00000145 +00000-0 +61011-4 0  9995
2 31001 099.2869 188.3823 0161988 314.8310 043.9803 14.35305185690261
Source of the keplerian elements: AFSPC